This is the latest recevied weather packets stored in our database for station/object CE4JVU-10. If no packets are shown the sender has not sent any weather packets the latest 10 day(s).
| Time | Temp. | Humidity | Pressure | Rain* | Wind** | Luminosity | Snow |
|---|---|---|---|---|---|---|---|
| 1777820111 | 16.67° C | 52% | 982.8 hPa | - | - | - | - |
| 1777818311 | 16.11° C | 52% | 982.7 hPa | - | - | - | - |
| 1777816511 | 15° C | 51% | 982.7 hPa | - | - | - | - |
| 1777814711 | 14.44° C | 51% | 982.6 hPa | - | - | - | - |
| 1777812910 | 13.89° C | 52% | 982.3 hPa | - | - | - | - |
| 1777811110 | 13.89° C | 52% | 982.1 hPa | - | - | - | - |
| 1777809309 | 13.89° C | 51% | 981.9 hPa | - | - | - | - |
| 1777807509 | 13.89° C | 50% | 981.7 hPa | - | - | - | - |
| 1777805709 | 13.89° C | 51% | 981.4 hPa | - | - | - | - |
| 1777803910 | 14.44° C | 51% | 981.1 hPa | - | - | - | - |
| 1777802110 | 14.44° C | 51% | 981.2 hPa | - | - | - | - |
| 1777800310 | 14.44° C | 51% | 981.5 hPa | - | - | - | - |
| 1777798510 | 14.44° C | 50% | 981.6 hPa | - | - | - | - |
| 1777796709 | 15° C | 50% | 981.5 hPa | - | - | - | - |
| 1777794909 | 15° C | 50% | 981.2 hPa | - | - | - | - |
| 1777793109 | 15° C | 50% | 981.7 hPa | - | - | - | - |
| 1777791309 | 15.56° C | 50% | 981.9 hPa | - | - | - | - |
| 1777789509 | 15.56° C | 50% | 981.8 hPa | - | - | - | - |
| 1777787709 | 15.56° C | 50% | 981.6 hPa | - | - | - | - |
| 1777785909 | 16.11° C | 49% | 981.5 hPa | - | - | - | - |
| 1777784109 | 16.11° C | 49% | 981.4 hPa | - | - | - | - |
| 1777782311 | 16.11° C | 49% | 981.5 hPa | - | - | - | - |
| 1777780511 | 16.67° C | 49% | 981.7 hPa | - | - | - | - |
| 1777778711 | 16.67° C | 49% | 982.1 hPa | - | - | - | - |
| 1777776910 | 17.22° C | 48% | 982.1 hPa | - | - | - | - |
* Rain since midnight (hover to see other rain measurements)
** Current wind speed in m/s (hover to see current wind gust speed)